NOAA NWS Hourly Roundups by Site

Regional Weather Roundup for Baltimore MD/Washington, DC

To Select Another Site Choose from List

Select Site:  

027
ASUS41 KLWX 150911
RWRLWX

REGIONAL WEATHER ROUNDUP
NATIONAL WEATHER SERVICE BALTIMORE MD/WASHINGTON DC
500 AM EDT SUN SEP 15 2019

Note: "FAIR" indicates few or no clouds below 12,000 feet
with no significant weather and/or obstructions to visibility.
 TC=TEMPERATURE CELSIUS

 * =Non NWS site. Station does not report precipitation (e.g. rain,
    snow, etc.), thunder, or fog.

DCZ001-MDZ009-015-VAZ040>042-051-053>054-151000-
WASHINGTON METRO

CITY           SKY/WX    TMP DP  RH WIND       PRES   REMARKS
WASHINGTON NAT CLOUDY    75  70  84 CALM      30.16S
DULLES         CLOUDY    71  67  87 NW7       30.17S
ANDREWS AFB    MOCLDY    73  70  88 W5        30.15S
FT BELVOIR     CLOUDY    72  69  92 CALM      30.16R
QUANTICO       CLOUDY    73  70  90 W3        30.16S
COLLEGE PARK*  CLOUDY    73  65  78 CALM      30.15S
LEESBURG*      FAIR      64  64 100 N6        30.20R
MANASSAS*      CLOUDY    72  69  90 CALM      30.17S
GAITHERSBURG*  CLOUDY    70  67  90 NW5       30.19R

$$

MDZ006>007-011-014-151000-
BALTIMORE METRO

CITY           SKY/WX    TMP DP  RH WIND       PRES   REMARKS
BWI AIRPORT    MOCLDY    72  69  90 CALM      30.15S
MD SCIENCE CTR   N/A     75  68  78 MISG      30.16R
MARTIN STATE   CLOUDY    73  72  94 CALM      30.17R
ANNAPOLIS      CLOUDY    78  70  76 CALM      30.14S
FORT MEADE*    CLOUDY    70  68  94 CALM      30.18S

$$

MDZ012-015-019>023-151000-
MARYLAND EASTERN SHORE

CITY           SKY/WX    TMP DP  RH WIND       PRES   REMARKS
OCEAN CITY     CLOUDY    73  72  96 CALM      30.16F
SALISBURY      CLOUDY    73  70  90 CALM      30.15F
BAY BRIDGE AP* LGT RAIN  75  75 100 SW5       30.15S
CAMBRIDGE*     CLOUDY    75  73  94 CALM      30.15S
EASTON*        FAIR      76  73  92 CALM      30.18F

$$

MDZ017>025-151000-
SOUTHERN MARYLAND

CITY           SKY/WX    TMP DP  RH WIND       PRES   REMARKS
PATUXENT RIVER CLOUDY    76  70  82 SW5       30.14F
ST INIGOES     CLOUDY    79  71  76 SW8       30.14S
LEONARDTOWN*   CLOUDY    73  70  88 CALM      30.16F

$$

MDZ003>005-151000-
NORTH CENTRAL MARYLAND

CITY           SKY/WX    TMP DP  RH WIND       PRES   REMARKS
FREDERICK*     NOT AVBL
HAGERSTOWN APT FAIR      64  62  93 CALM      30.20R

$$

MDZ501>502-151000-
WESTERN MARYLAND

CITY           SKY/WX    TMP DP  RH WIND       PRES   REMARKS
OAKLAND*       FAIR      54  50  87 CALM      30.29S
CUMBERLAND*    FAIR      58  57  97 CALM      30.28R

$$

VAZ025>031-151000-
SHENANDOAH VALLEY

CITY           SKY/WX    TMP DP  RH WIND       PRES   REMARKS
WINCHESTER*    FAIR      64  61  88 CALM      30.20S
FRONT ROYAL*   FAIR     N/A N/A N/A CALM      30.21R
LURAY*         CLOUDY    64  64 100 CALM      30.21S FOG
NEW MARKET*    MOCLDY    63  62  96 CALM      30.22R
STAUNTON*      CLOUDY    63  63  99 CALM      30.23S FOG
WAYNESBORO*    FAIR      65  65  99 NW3       30.22R

$$

WVZ021-048>050-054>055-151000-
EASTERN WEST VIRGINIA PANHANDLE

CITY           SKY/WX    TMP DP  RH WIND       PRES   REMARKS
MARTINSBURG    FAIR      64  63  96 CALM      30.20R
PETERSBURG*    FOG       56  56 100 CALM      30.24F VSB 1/2

$$

VAZ036>039-050-151000-
CENTRAL FOOTHILLS

CITY           SKY/WX    TMP DP  RH WIND       PRES   REMARKS
CHARLOTTESVILL MOCLDY    69  66  90 CALM      30.17R
CULPEPER*      CLOUDY    71  69  94 N3        30.18S
ORANGE*        CLOUDY    68  66  94 CALM      30.17S FOG
GORDONSVILLE*  CLOUDY    68  68 100 CALM      30.16S
WARRENTON*     CLOUDY    71  67  88 CALM      30.17S

$$

VAZ055>057-151000-
NORTH AND CENTRAL PIEDMONT

CITY           SKY/WX    TMP DP  RH WIND       PRES   REMARKS
FREDERICKSBRG* CLOUDY    72  71  98 CALM      30.15R
STAFFORD*      CLOUDY    70  70 100 CALM      30.20S

$$

NCZ024-NYZ072-PAZ021-071-VAZ022-071-151000-
OTHER REGIONAL OBSERVATIONS

CITY           SKY/WX    TMP DP  RH WIND       PRES   REMARKS
NEW YORK CITY  CLOUDY    71  65  81 CALM      30.18S
PHILADELPHIA   MOCLDY    71  69  93 CALM      30.15S
PITTSBURGH     FAIR      56  52  86 CALM      30.22S
ROANOKE          N/A     68  67  96 NE3       30.21S FOG
RICHMOND       MOCLDY    73  70  90 CALM      30.15S
RALEIGH        FAIR      68  67  96 CALM      30.15F FOG

$$

ANZ530>537-151000-
MARINE OBSERVATIONS

STATION/POSITION TIME  TEMP    WIND        PRES
                       AIR SEA DIR/SP/G
                 (UTC) (F)     (DEG/KT/KT) (MB)
THOMAS PT LIGHT  0900   74 76  220/  5/  6 1021.9R
BALT KEY BRIDGE  0824   74     270/  4/  5 1021.0
COVE POINT       0824   75     200/  3/  4 1021.6
LEWISETTA        0818   75 76  220/  5/  6 1020.8
SOLOMONS ISLAND  0824   75 77  230/  4/  5 1020.6
PINEY POINT      0824          230/  6/  8   N/A

$$




 

View Past Reports for Baltimore MD/Washington, DC.

Products Courtesy of NOAA-NWS
NWS Information Parsing Script by Ken True at Saratoga Weather - Script by SE Lincoln Weather.